Tracking 21094 objects as of 11-Aug-2020
HD Live streaming from Space Station
objects crossing your sky now
Track the most recent launched group of Starlink satellites

SL-14 R/B

Track SL-14 R/B now!
10-day predictions


NORAD ID: 15100
Int'l Code: 1984-072B
Perigee: 946.6 km
Apogee: 964.0 km
Inclination: 82.5 °
Period: 104.0 minutes
Semi major axis: 7326 km
RCS: 5.0553 m2 (large)
Launch date: July 5, 1984
Source: Commonwealth of Independent States (former USSR) (CIS)
Launch site: PLESETSK MISSILE AND SPACE COMPLEX (PKMTR)

Note: This is a ROCKET BODY
aabbcc
Your satellite tracking list
Your tracking list is empty




NASA's NSSDC Master Catalog

Two Line Element Set (TLE):
1 15100U 84072B   20224.47280101  .00000019  00000-0  33705-5 0  9994
2 15100  82.5316 306.1214 0011827   1.0196 359.0986 13.84443958824202
Source of the keplerian elements: AFSPC